STARLINK-34187, 63956

Orbit data source: Space-Track

STARLINK-34187, 63956 is a payload satellite owned by SpaceX/Seattle (US) in LEO that was launched on Tue, 13 May 2025 UTC via an FALCON 9 launch vehicle from the Air Force Eastern Test Range (AFETR). Payload-class satellites include a variety of spacecraft equipped with specific instruments for various scientific and technological missions. These include communications satellites like Starlink; space stations such as the ISS; scientific satellites like the Hubble; Earth observation satellites from companies like Planet Labs, Umbra, and HawkEye 360; GPS; miniature CubeSats for education and research; and military/defense satellites.

Loading next visibility...
Identifier
63956, 2025-099E
Orbit
LEO
Country
Flag of USUS
Related business
Manufacturer
SpaceX/Seattle
Mission
Operational Commercial Communications
Bus & Motor
STARLINK V2MO, Unknown motor
Mass
575 kg wet, ~530 kg dry
Launch date (UTC)
2025-05-13 (1 year ago)
Launch vehicle
FALCON 9
Launch site
Air Force Eastern Test Range (AFETR)
Object type
Payload
Rocket body
Debris
Shape & HBR
Box + 2 Pan, 17.7 m
Radar Cross Section
36.964 m², Large (>1 m²)

Expand to show TLE details & history
Last TLE update: 1 day ago

TLE from 1 day ago
0 STARLINK-34187
1 63956U 25099E   26170.49822272  .00020885  00000-0  76595-3 0  9994
2 63956  42.9984 321.5186 0002043 275.4615  84.6004 15.27594271 62904
Epoch: 2026-06-19T11:57Z
TLE epoch observation values (Epoch: 2026-06-19T11:57:26.443Z)
Latitude
-0.00001°
Longitude
-125.56792°
Altitude
482.65 km
Speed
7.626 km/s
True Right ascension
21h 26m 04s
True Declination
0° 00' 00"
Sunlit
Object was in full shadow at epoch
Visualization orbit readout
Latitude
Unknown
Longitude
Unknown
Altitude
Unknown
Speed
Unknown
Apparent Right ascension
Unknown
Apparent Declination
Unknown
Sunlit
N/A
Visualization observer readout
Local Sidereal Time
10:20:18
Azimuth
Unknown
Elevation
Unknown
Doppler factor
Unknown
Orbital elements
Apogee altitude
486.354 km
Perigee altitude
483.55 km
Semi-major axis
6,863.089 km
Eccentricity
0.0002
Inclination
42.9984°
RAAN
321.5186°
Arg. of periapsis
275.4615°
True anomaly
84.62371°
Mean anomaly
84.6004°
Eccentric anomaly
84.61205°
Mean motion
3.81737 °/min
Orbital period
94.31 mins
BSTAR
0.00076595
Loading maneuver chart data...
Computing Atmospheric mass density...
Loading historical data...
Loading historical data...
Loading historical data...
Loading historical data...
Loading historical data...
Loading historical data...
Loading historical data...

Documentation

Showing up to 5 results
|